EUTELSAT 117 WEST B

Last updated on Tue Sep 22 2026 00:03:13 GMT+0000 (Coordinated Universal Time)

1 41589U 16038B 26264.53717089 -.00000015 00000+0 00000+0 0 9990 2 41589 0.0430 356.9017 0000250 338.8563 101.0501 1.00269630 37623
UTC large
Height (km)
Speed (km/s)
/
Latitude / Longitude
Inclination (degrees)
Orbital Period (minutes)
Azimuth
Elevation
Range (km)
Doppler Factor

Next 0 passes for location: London (51.5072 / 0.1276)

No passes found over London.
EUTELSAT 117 WEST B